[[{"header":{"parameterUnit":"m.s-1","parameterCategory":1,"la1":30.2991,"la2":30.254,"lo1":-89.0895,"lo2":-89.0444,"dy":0.0017,"dx":0.0017,"nx":28,"ny":28,"refTime":"2023-10-10T21:00:00:Z","depth":0,"parameterNumber":2,"parameterNumberName":"U-component_of_WINDS"},"data":[0,0,0,0,0,0,0,0,0,0,0,0,0,0,0,0,0,0,0,0,0,0,0,0,0,0,0,0,0,0,0,0,0,0,0,0,0,0,0,0,0,0,0,0,0,0,0,0,0,0,0,0,0,0,0,0,0,0,-0.3775,-0.3774,0,-0.3732,-0.3732,-0.3731,-0.372,-0.372,-0.372,-0.3721,-0.3674,-0.3672,-0.3671,0,0,0,0,0,0,0,0,0,0,0,0,0,-0.3842,-0.3841,-0.3775,-0.3774,-0.3774,-0.3732,-0.3732,-0.3731,-0.372,-0.372,-0.3721,-0.3721,-0.3674,-0.3672,-0.367,0,0,0,0,0,0,0,0,0,0,0,0,0,-0.3807,-0.384,-0.3775,-0.3763,-0.3762,-0.3733,-0.3732,-0.3731,-0.372,-0.372,-0.3721,-0.3721,-0.3675,-0.3672,-0.367,-0.3649,0,0,-0.3663,-0.3662,0,0,0,0,0,0,0,0,-0.3809,-0.3805,-0.3765,-0.3764,-0.3762,-0.3732,-0.3738,-0.3703,-0.372,-0.3736,-0.3721,-0.3721,-0.3692,-0.3689,-0.368,-0.3646,-0.3644,-0.3663,-0.3662,-0.3661,-0.366,0,0,0,0,0,0,0,-0.3812,-0.3807,-0.3758,-0.3765,-0.3763,-0.3759,-0.3754,-0.3732,-0.3712,-0.3734,-0.3733,-0.3729,-0.3692,-0.3682,-0.3679,-0.3644,-0.3663,-0.3661,-0.366,-0.3659,-0.3589,-0.3589,0,0,0,0,0,0,-0.3817,-0.3809,-0.3759,-0.3757,-0.3787,-0.3757,-0.3752,-0.3741,-0.3712,-0.3709,-0.3728,-0.3728,-0.3686,-0.3681,-0.3677,-0.3649,-0.3661,-0.3659,-0.3657,-0.359,-0.3589,-0.3588,0,0,0,0,0,0,-0.3818,-0.3812,-0.3761,-0.3782,-0.3776,-0.3756,-0.3743,-0.374,-0.3731,-0.3708,-0.3704,-0.3722,-0.3686,-0.368,-0.3656,-0.3647,-0.3658,-0.3656,-0.359,-0.3589,-0.3589,-0.3594,0,0,0,0,0,0,-0.382,-0.3813,-0.3806,-0.3782,-0.3775,-0.3742,-0.3743,-0.3739,-0.3727,-0.3727,-0.3701,-0.3698,-0.3686,-0.3659,-0.3653,-0.3645,-0.3654,-0.3591,-0.359,-0.3589,-0.3595,-0.3594,-0.3593,0,0,0,0,0,-0.3823,-0.3808,-0.3805,-0.3799,-0.3765,-0.3741,-0.3737,-0.3724,-0.3727,-0.3718,-0.3704,-0.3698,-0.3649,-0.3657,-0.365,-0.3641,-0.3591,-0.359,-0.3589,-0.3595,-0.3594,-0.3593,0,0,0,0,0,0,-0.383,-0.3805,-0.3802,-0.3779,-0.3763,-0.374,-0.3729,-0.3724,-0.3705,-0.3705,-0.3689,-0.3684,-0.366,-0.3648,-0.3657,-0.3617,-0.362,-0.3618,-0.3627,-0.3625,-0.3625,-0.3628,-0.3652,0,0,0,0,0,-0.3829,-0.3813,-0.3792,-0.3774,-0.3766,-0.3749,-0.3738,-0.373,-0.3712,-0.3704,-0.3688,-0.3669,-0.3649,-0.3637,-0.3617,-0.3593,-0.3586,-0.3582,-0.3582,-0.3581,-0.3579,-0.3564,-0.3562,-0.3585,-0.3585,-0.3585,0,0,-0.3827,-0.3811,-0.3802,-0.3775,-0.3761,-0.3744,-0.3743,-0.3725,-0.3712,-0.3701,-0.3678,-0.3665,-0.3642,-0.3618,-0.3606,-0.3607,-0.3571,-0.358,-0.3579,-0.3577,-0.3563,-0.3561,-0.3559,-0.3584,-0.3584,-0.3584,0,0,-0.3814,-0.3801,-0.3785,-0.3771,-0.3751,-0.3739,-0.3735,-0.3713,-0.3704,-0.3681,-0.3672,-0.3655,-0.3622,-0.3606,-0.3594,-0.3575,-0.3569,-0.3568,-0.3564,-0.355,-0.3548,-0.3546,-0.3539,-0.3536,-0.3567,-0.3567,-0.3567,0,-0.3814,-0.3789,-0.3777,-0.376,-0.3747,-0.3738,-0.3721,-0.3708,-0.3681,-0.3672,-0.3674,-0.3631,-0.3616,-0.3587,-0.3582,-0.3573,-0.3567,-0.3571,-0.3549,-0.3547,-0.3546,-0.3538,-0.3536,-0.3567,-0.3567,-0.3567,-0.3567,0,-0.3789,-0.3772,-0.3761,-0.3737,-0.3724,-0.3706,-0.369,-0.3678,-0.3671,-0.3659,-0.3634,-0.3615,-0.3591,-0.3584,-0.3576,-0.3553,-0.3554,-0.3553,-0.3555,-0.3544,-0.3537,-0.3534,-0.3567,-0.3567,-0.3567,-0.3567,0,0,-0.378,-0.375,-0.3746,-0.3735,-0.3711,-0.3697,-0.3678,-0.3656,-0.3646,-0.3627,-0.3611,-0.3582,-0.3581,-0.3567,-0.3557,-0.3544,-0.3529,-0.3544,-0.3543,-0.3542,-0.3502,-0.3504,-0.3501,-0.3525,-0.3525,-0.3524,-0.3504,0,-0.3765,-0.3733,-0.3722,-0.3695,-0.3678,-0.3669,-0.3652,-0.3635,-0.3623,-0.3606,-0.3592,-0.3572,-0.3571,-0.3563,-0.355,-0.3534,-0.3521,-0.3535,-0.3508,-0.3508,-0.3515,-0.3497,-0.3499,-0.3481,-0.3501,-0.3501,-0.35,0,-0.3743,-0.3725,-0.3697,-0.3675,-0.3668,-0.3654,-0.3632,-0.3616,-0.3596,-0.3588,-0.3572,-0.3563,-0.3542,-0.3545,-0.3515,-0.3525,-0.3513,-0.3503,-0.3502,-0.3499,-0.3504,-0.3494,-0.3475,-0.3472,-0.3496,-0.3496,-0.3497,0,-0.3739,-0.3708,-0.3687,-0.3678,-0.3652,-0.3642,-0.363,-0.361,-0.3598,-0.3578,-0.357,-0.3547,-0.3535,-0.3518,-0.3502,-0.3506,-0.3473,-0.3475,-0.3465,-0.3465,-0.3458,-0.3459,-0.3437,-0.3451,-0.3451,-0.3451,-0.3451,0,-0.3722,-0.3706,-0.3685,-0.3673,-0.3653,-0.3639,-0.3619,-0.3607,-0.3589,-0.3573,-0.3562,-0.3547,-0.3528,-0.3509,-0.3497,-0.3473,-0.3467,-0.3459,-0.3456,-0.346,-0.3461,-0.3452,-0.3453,-0.345,-0.345,-0.345,-0.3451,0,-0.3715,-0.3701,-0.3678,-0.3655,-0.3649,-0.3635,-0.3615,-0.3601,-0.3589,-0.3568,-0.3562,-0.3541,-0.3519,-0.3502,-0.3472,-0.3464,-0.3439,-0.3435,-0.3446,-0.3444,-0.3435,-0.3436,-0.3406,-0.3401,-0.3419,-0.3418,-0.3418,0,-0.3706,-0.3693,-0.3669,-0.3658,-0.3646,-0.3628,-0.3616,-0.3601,-0.3587,-0.3563,-0.3552,-0.3529,-0.351,-0.3474,-0.3456,-0.3433,-0.3429,-0.342,-0.3425,-0.3429,-0.3428,-0.3429,-0.3427,-0.3419,-0.3419,-0.3419,-0.3419,0,-0.3691,-0.3684,-0.3667,-0.3647,-0.3632,-0.3615,-0.3598,-0.3589,-0.3571,-0.3556,-0.3534,-0.3519,-0.3489,-0.3466,-0.3441,-0.3427,-0.3419,-0.3417,-0.3414,-0.3418,-0.3424,-0.342,-0.3444,-0.3418,-0.3418,-0.3418,-0.3418,-0.3418,-0.3682,-0.3669,-0.3651,-0.3631,-0.3617,-0.3601,-0.3587,-0.3573,-0.3554,-0.353,-0.3522,-0.3498,-0.3477,-0.3443,-0.3429,-0.3409,-0.3409,-0.3404,-0.3402,-0.3401,-0.3401,-0.3428,-0.3404,-0.3404,-0.3404,-0.3404,-0.3404,0,-0.3666,-0.3653,-0.3636,-0.3612,-0.3597,-0.3592,-0.3573,-0.3559,-0.354,-0.3521,-0.3502,-0.3476,-0.3453,-0.3433,-0.3409,-0.3397,-0.3393,-0.3391,-0.3392,-0.3388,-0.3403,-0.3408,-0.3395,-0.3395,-0.3395,-0.3395,-0.3395,-0.3395,-0.3656,-0.3635,-0.3626,-0.3597,-0.3584,-0.3562,-0.3551,-0.3536,-0.3521,-0.3492,-0.3474,-0.3461,-0.3441,-0.3416,-0.3394,-0.3388,-0.338,-0.3379,-0.3372,-0.3386,-0.3387,-0.3389,-0.3394,-0.3377,-0.3377,-0.3359,-0.3359,-0.3359]},{"header":{"parameterUnit":"m.s-1","parameterCategory":1,"la1":30.2991,"la2":30.254,"lo1":-89.0895,"lo2":-89.0444,"dy":0.0017,"dx":0.0017,"nx":28,"ny":28,"refTime":"2023-10-10T21:00:00:Z","depth":0,"parameterNumber":3,"parameterNumberName":"V-component_of_WINDS"},"data":[0,0,0,0,0,0,0,0,0,0,0,0,0,0,0,0,0,0,0,0,0,0,0,0,0,0,0,0,0,0,0,0,0,0,0,0,0,0,0,0,0,0,0,0,0,0,0,0,0,0,0,0,0,0,0,0,0,0,-4.9002,-4.9003,0,-4.9088,-4.9089,-4.909,-4.9075,-4.9073,-4.9072,-4.907,-4.9153,-4.9156,-4.916,0,0,0,0,0,0,0,0,0,0,0,0,0,-4.882,-4.8824,-4.9002,-4.9003,-4.9004,-4.9088,-4.9089,-4.909,-4.9075,-4.9073,-4.9071,-4.9069,-4.9151,-4.9156,-4.916,0,0,0,0,0,0,0,0,0,0,0,0,0,-4.8902,-4.8825,-4.9002,-4.9007,-4.9008,-4.9088,-4.9089,-4.9091,-4.9075,-4.9073,-4.9071,-4.9069,-4.915,-4.9155,-4.9161,-4.9239,0,0,-4.9177,-4.9179,0,0,0,0,0,0,0,0,-4.8897,-4.8909,-4.9005,-4.9007,-4.9008,-4.9068,-4.9055,-4.914,-4.9076,-4.905,-4.907,-4.9067,-4.9126,-4.9133,-4.9154,-4.9243,-4.9246,-4.9178,-4.9181,-4.9183,-4.9185,0,0,0,0,0,0,0,-4.8892,-4.8905,-4.9036,-4.9006,-4.9008,-4.9003,-4.9012,-4.9071,-4.9099,-4.9052,-4.9051,-4.9061,-4.9126,-4.9149,-4.9156,-4.9248,-4.9177,-4.9182,-4.9186,-4.9188,-4.9406,-4.9408,0,0,0,0,0,0,-4.8885,-4.89,-4.9033,-4.9039,-4.8946,-4.9008,-4.9019,-4.9051,-4.9099,-4.9104,-4.9063,-4.906,-4.9141,-4.915,-4.9159,-4.9255,-4.9183,-4.9188,-4.9191,-4.9403,-4.9406,-4.9409,0,0,0,0,0,0,-4.8881,-4.8897,-4.903,-4.8969,-4.8986,-4.9014,-4.9051,-4.9054,-4.9077,-4.9107,-4.9112,-4.9082,-4.9139,-4.9151,-4.922,-4.9257,-4.9191,-4.9195,-4.94,-4.9404,-4.9408,-4.9446,0,0,0,0,0,0,-4.8876,-4.8896,-4.8927,-4.897,-4.8989,-4.9091,-4.9053,-4.9057,-4.9087,-4.9084,-4.9126,-4.913,-4.9139,-4.9212,-4.9225,-4.9263,-4.92,-4.9397,-4.9402,-4.9407,-4.9442,-4.9451,-4.9459,0,0,0,0,0,-4.887,-4.8933,-4.8929,-4.8945,-4.9029,-4.9093,-4.9104,-4.9113,-4.909,-4.9121,-4.9141,-4.9129,-4.9251,-4.9219,-4.9234,-4.9274,-4.9395,-4.9401,-4.9406,-4.9438,-4.9449,-4.9459,0,0,0,0,0,0,-4.8891,-4.8939,-4.8934,-4.9014,-4.905,-4.909,-4.913,-4.9125,-4.9167,-4.9162,-4.917,-4.918,-4.925,-4.9269,-4.9232,-4.9353,-4.9319,-4.9328,-4.9338,-4.9349,-4.9358,-4.9352,-4.9204,0,0,0,0,0,-4.8906,-4.8956,-4.8994,-4.906,-4.9079,-4.9101,-4.9129,-4.9134,-4.9171,-4.9185,-4.921,-4.9245,-4.9291,-4.9321,-4.9365,-4.9445,-4.9453,-4.948,-4.9488,-4.9495,-4.9503,-4.9547,-4.9559,-4.9428,-4.9428,-4.9428,0,0,-4.8935,-4.8967,-4.8998,-4.9065,-4.9094,-4.9144,-4.9114,-4.9168,-4.9205,-4.9193,-4.926,-4.9279,-4.9319,-4.9393,-4.9427,-4.9411,-4.9541,-4.9502,-4.9508,-4.9512,-4.9554,-4.9566,-4.9577,-4.9432,-4.9431,-4.9431,0,0,-4.9015,-4.9044,-4.9103,-4.9133,-4.9177,-4.9192,-4.9207,-4.9248,-4.9262,-4.933,-4.9322,-4.9365,-4.9444,-4.9473,-4.9498,-4.959,-4.9581,-4.9604,-4.9648,-4.9691,-4.9701,-4.9711,-4.9744,-4.9756,-4.9611,-4.9611,-4.9612,0,-4.9045,-4.9123,-4.9134,-4.919,-4.922,-4.9213,-4.9273,-4.93,-4.9356,-4.9376,-4.9357,-4.9458,-4.9483,-4.9565,-4.9588,-4.9608,-4.9624,-4.9599,-4.9699,-4.9709,-4.9717,-4.9749,-4.9762,-4.9614,-4.9614,-4.9613,-4.9613,0,-4.9158,-4.9212,-4.9254,-4.9311,-4.9345,-4.9402,-4.9421,-4.9454,-4.9456,-4.9472,-4.9542,-4.9573,-4.9624,-4.9643,-4.9644,-4.9725,-4.9714,-4.9698,-4.9664,-4.9732,-4.9762,-4.9775,-4.9618,-4.9617,-4.9616,-4.9615,0,0,-4.9253,-4.9317,-4.9332,-4.9358,-4.9407,-4.9448,-4.9505,-4.9557,-4.9585,-4.9623,-4.9671,-4.9739,-4.9725,-4.9753,-4.9757,-4.9795,-4.9867,-4.9774,-4.9775,-4.979,-4.9958,-4.9971,-4.9985,-4.9861,-4.9863,-4.9865,-4.9955,0,-4.9338,-4.9441,-4.9453,-4.9543,-4.9593,-4.9588,-4.9638,-4.9672,-4.9689,-4.9733,-4.975,-4.9799,-4.9776,-4.9793,-4.983,-4.985,-4.99,-4.9844,-4.9904,-4.9906,-4.9895,-5.0,-5.0014,-5.0097,-4.9967,-4.9969,-4.997,0,-4.945,-4.9495,-4.9591,-4.9635,-4.9656,-4.9701,-4.975,-4.9792,-4.983,-4.984,-4.9873,-4.9873,-4.993,-4.9894,-4.9973,-4.9935,-4.996,-4.9974,-4.9977,-4.9983,-4.9943,-5.001,-5.0124,-5.0136,-4.9989,-4.9987,-4.9986,0,-4.9511,-4.9595,-4.9664,-4.9686,-4.9738,-4.977,-4.9792,-4.9829,-4.986,-4.9902,-4.9922,-4.997,-4.9996,-5.0032,-5.0044,-5.0017,-5.0123,-5.0088,-5.0132,-5.0132,-5.0154,-5.0153,-5.0275,-5.017,-5.017,-5.017,-5.017,0,-4.9605,-4.9664,-4.9692,-4.9734,-4.98,-4.9813,-4.9878,-4.9899,-4.9932,-4.9977,-4.9975,-5.0017,-5.0031,-5.0075,-5.0085,-5.0149,-5.0161,-5.0169,-5.0171,-5.017,-5.0169,-5.0187,-5.0181,-5.0173,-5.0172,-5.0172,-5.0171,0,-4.9683,-4.9705,-4.9779,-4.9824,-4.9836,-4.9883,-4.992,-4.996,-4.9977,-5.0034,-5.0049,-5.0075,-5.0127,-5.0143,-5.0205,-5.0211,-5.0287,-5.0283,-5.0274,-5.0275,-5.0318,-5.0314,-5.0456,-5.0475,-5.0358,-5.0359,-5.036,0,-4.9742,-4.9788,-4.9838,-4.9869,-4.9894,-4.9944,-4.9976,-4.9991,-5.0024,-5.0073,-5.0107,-5.0159,-5.0202,-5.0285,-5.0308,-5.0356,-5.0354,-5.04,-5.0361,-5.0358,-5.0355,-5.0352,-5.0357,-5.0408,-5.0409,-5.041,-5.0411,0,-4.9844,-4.9852,-4.99,-4.9952,-4.9991,-5.0032,-5.0071,-5.0096,-5.0116,-5.0153,-5.0208,-5.0241,-5.0306,-5.0358,-5.0406,-5.0428,-5.0423,-5.0423,-5.0436,-5.0435,-5.0428,-5.0433,-5.0295,-5.042,-5.0419,-5.0418,-5.0418,-5.0417,-4.9914,-4.9956,-4.9998,-5.0051,-5.0083,-5.012,-5.016,-5.0183,-5.023,-5.0285,-5.029,-5.0349,-5.0387,-5.0453,-5.0477,-5.0522,-5.0509,-5.0527,-5.0532,-5.0536,-5.054,-5.0421,-5.0531,-5.0531,-5.0531,-5.053,-5.053,0,-5.0017,-5.0044,-5.0093,-5.015,-5.0191,-5.0185,-5.0228,-5.0263,-5.0316,-5.0353,-5.0396,-5.0458,-5.0509,-5.0537,-5.0587,-5.0618,-5.0617,-5.0631,-5.0628,-5.0634,-5.0549,-5.0533,-5.0631,-5.0631,-5.0631,-5.0631,-5.0631,-5.0631,-5.0075,-5.0145,-5.0159,-5.0244,-5.027,-5.033,-5.0355,-5.0389,-5.0419,-5.049,-5.0533,-5.0552,-5.0585,-5.0637,-5.0683,-5.069,-5.0708,-5.0724,-5.0729,-5.065,-5.0639,-5.063,-5.0615,-5.0728,-5.0728,-5.081,-5.0811,-5.0811]}]]